Regional Weather Roundup
Issued by NWS

Home | Current Version | Previous Version | Graphics & Text | Print | Product List | Glossary On
Versions: 1 2 3 4 5 6 7 8 9 10 11 12 13 14 15 16 17 18 19 20 21 22 23 24 25 26 27 28 29 30 31 32 33 34 35 36 37 38 39 40 41 42 43 44 45 46 47 48 49 50
000
ASUS43 KMKX 252300
RWRWI

WISCONSIN REGIONAL WEATHER ROUNDUP
NATIONAL WEATHER SERVICE MILWAUKEE/SULLIVAN WI
600 PM CDT FRI JUL 25 2014

NOTE: "FAIR" INDICATES FEW OR NO CLOUDS BELOW 12,000 FEET WITH NO
SIGNIFICANT WEATHER AND/OR OBSTRUCTIONS TO VISIBILITY.

WIZ001-002-006>008-014>016-023>028-260000-
NORTHWEST WISCONSIN

CITY           SKY/WX    TMP DP  RH WIND       PRES   REMARKS
SUPERIOR ARPT  CLOUDY    64  60  87 NE3       29.79S
ASHLAND        CLOUDY    70  64  81 SW9       29.82S
HAYWARD        LGT RAIN  68  66  93 S7        29.83S FOG
SIREN          RAIN      73  66  78 SE3       29.80S
RICE LAKE      CLOUDY    71  64  80 SE8       29.84S
LADYSMITH      CLOUDY    69  64  83 SE3       29.87S
EAU CLAIRE     NOT AVBL
MENOMONIE      CLOUDY    76  68  77 SE10      29.82S
NEW RICHMOND   CLOUDY    76  67  75 S5        29.80F
OSCEOLA        CLOUDY    75  71  85 SE7       29.80F
$$

WIZ003>005-009-010-017-018-260000-
NORTH CENTRAL WISCONSIN

CITY           SKY/WX    TMP DP  RH WIND       PRES   REMARKS
WOODRUFF       CLOUDY    69  64  81 S12       29.87R
RHINELANDER    CLOUDY    66  61  84 SW10      29.89R
EAGLE RIVER      N/A     67  59  77 SW8       29.86R
LAND O LAKES   CLOUDY    69  62  78 S3        29.87S
PHILLIPS       CLOUDY    65  63  91 S5        29.87R
TOMAHAWK       CLOUDY    64  61  88 S3        29.89S
MEDFORD        CLOUDY    67  63  85 S8        29.88S
MERRILL        CLOUDY    67  62  86 SW9       29.88S
$$

WIZ029-030-035-036-043>047-260000-
CENTRAL WISCONSIN

CITY           SKY/WX    TMP DP  RH WIND       PRES   REMARKS
WAUSAU         CLOUDY    67  62  84 SW8       29.87S
MOSINEE        NOT AVBL
MARSHFIELD     CLOUDY    70  63  78 S9        29.88S
STEVENS POINT  CLOUDY    66  60  79 SW7       29.89S
WAUPACA        CLOUDY    72  61  67 SW8       29.89F
WAUTOMA        NOT AVBL
WISC RAPIDS    PTSUNNY   72  62  71 SW7       29.89F
CAMP DOUGLAS   NOT AVBL
$$

WIZ011>013-019>022-031-037>040-048>050-260000-
NORTHEAST WISCONSIN

CITY           SKY/WX    TMP DP  RH WIND       PRES   REMARKS
ANTIGO         CLOUDY    65  61  88 S8        29.90R
STURGEON BAY   CLOUDY    68  57  68 S7        29.88F
GREEN BAY      CLOUDY    72  61  68 SW9       29.88F
MANITOWOC      NOT AVBL
APPLETON       PTSUNNY   72  57  60 SW12      29.89F
CLINTONVILLE   CLOUDY    72  59  64 SW7       29.88F
OSHKOSH        PTSUNNY   72  61  68 SW12      29.89S
$$

WIZ032>034-041-042-053>061-260000-
SOUTHWEST WISCONSIN

CITY           SKY/WX    TMP DP  RH WIND       PRES   REMARKS
LA CROSSE      PTSUNNY   78  64  61 S12       29.83F HX  80
SPARTA         MOSUNNY   74  61  63 S7        29.86F
VIROQUA        MOCLDY    74  64  71 S8        29.88S
BOSCOBEL       CLOUDY    73  63  70 CALM      29.88S
PRAIRIE DU CHI CLOUDY    73  63  68 E6        29.86R
PLATTEVILLE    CLOUDY    71  64  79 SE10      29.91R
$$

WIZ056-057-062-063-064-067-068-260000-
SOUTH CENTRAL WISCONSIN

CITY           SKY/WX    TMP DP  RH WIND       PRES   REMARKS
BARABOO/DELLS  CLOUDY    70  59  68 S7        29.90F
LONE ROCK      NOT AVBL
WATERTOWN      CLOUDY    71  62  72 S8        29.91F
MADISON        CLOUDY    71  61  70 S10       29.90F
MIDDLETON      CLOUDY    71  60  68 S9        29.91F
MONROE         CLOUDY    68  61  77 S9        29.92S
JANESVILLE     CLOUDY    72  59  64 S7        29.91F
$$

WIZ051-052-058>065-066-070>072-260000-
SOUTHEAST WISCONSIN

CITY           SKY/WX    TMP DP  RH WIND       PRES   REMARKS
MILWAUKEE      PTSUNNY   73  58  59 SW10      29.91F
WAUKESHA       PTSUNNY   72  57  60 SW9       29.93F
MILWAUKEE/TIMM PTSUNNY   73  57  56 S8        29.91F
RACINE         CLOUDY    73  58  59 SW8       29.93F
BURLINGTON     CLOUDY    71  59  66 SW10      29.93S
KENOSHA        PTSUNNY   75  60  59 SW8       29.92F
FOND DU LAC    PTSUNNY   73  59  61 SW13G18   29.89F
SHEBOYGAN      PTSUNNY   74  60  61 S13       29.90F
WEST BEND      PTSUNNY   72  57  60 SW8       29.91F
JUNEAU         CLOUDY    71  57  63 S10       29.92F
$$

LSZ147-162-260000-
LAKE SUPERIOR

STATION/POSITION TIME  TEMP    WIND        PRES    WAVE
                       AIR SEA DIR/SP/G            HT/PER
                 (UTC) (F)     (DEG/KT/KT) (MB)    (FT/S)
W MID LAKE BUOY  2150   59 51   CALM  /  2 1008.8R   1
PORT WING        2200   70     200/  5/  9 1009.1S
SAXON HARBOR     2240          190/  8/ 12 1009.5S
$$

LMZ867-665-643>646-260000-
LAKE MICHIGAN

STATION/POSITION TIME  TEMP    WIND        PRES    WAVE
                       AIR SEA DIR/SP/G            HT/PER
                 (UTC) (F)     (DEG/KT/KT) (MB)    (FT/S)
N MID LAKE BUOY  2150   59 55  190/ 14/ 16 1011.8S   3/ 5
NORTHPORT PIER   2200   67     170/  6/ 11 1011.9S
KEWAUNEE LAKESHO 2200   56     180/ 14/ 15 1013.1F
SHEBOYGAN LAKESH 2200   63     160/ 17/ 18 1012.7F
PORT WASHINGTON  2200   67     180/  6/  8 1013.5F
ATWATER BUOY     2200   63     130/  8     1014.2F
MILWAUKEE LAKESH 2200   67     130/  5/  6   N/A
S MID LAKE BUOY  2150   64 62  170/  8/  8 1014.0F   1/ 4
KENOSHA   LAKESH 2200   74     230/  9/ 15 1013.2F
$$

TC  - TEMPERATURE IN CELSIUS
VSB - VISIBILITY IN STATUTE MILES
WCI - WIND CHILL INDEX
HX  - HEAT INDEX




USA.gov is the U.S. government's official web portal to all federal, state and local government web resources and services.